星链-3256 (STARLINK-3256 )

导读 | 星芒AI

STARLINK-3256 是 SpaceX Starlink 项目中的一颗低轨通信卫星,属于第三代星链卫星(v1.5 或 v2 构型)。该卫星部署于近地轨道,旨在为全球用户提供高速互联网服务。它采用先进的推进系统和激光通信技术,提高网络稳定性和传输效率。STARLINK-3256 与其他星链卫星协同工作,构建覆盖全球的宽带网络,尤其服务于偏远和网络基础设施薄弱的地区。该卫星的发射和运行有助于提升 Starlink 网络的整体性能和可靠性。

基本信息
目录编号:
50202
目录名称:
STARLINK-3256
国际标识:
2021-125AY
轨道中心:
EARTH
卫星名称:
星链-3256
卫星全名:
星链-3256 (STARLINK-3256 )
卫星状态:
在轨 (已飞行1417 天)
发射日期:
2021-12-18 UTC
国别 :
美国 (US)
星等 :
--
轨道信息
数据来源 国际轨道数据
星历时间: 2025-11-04T04:46:54+0800
11小时前
查看轨道信息
半长轴: 6917.874km
偏心率: 0.0001263
轨道倾角: 53.217°
近地点辐角 89.900°
升交点赤经 83.965°
平近点角 270.214°
近地点: 538.865km
远地点: 540.613km
周期: 95.437分钟
每日圈数: 15.088423
详细信息
固有亮度:
5
最大亮度:
2.5
卫星平台:
Starlink v1.5
覆盖范围:
全球
运营商:
太空探索技术公司
运营商所在国:
美国
制造商(研发单位):
太空探索技术公司
制造商所在国:
美国
使用方式:
暂无
卫星简介
星链(Starlink)计划是由太空探索技术公司(SpaceX)提出的一个巨型低轨卫星互联网星座项目,计划在2019年至2024年间在太空搭建由约1.2万颗卫星组成的“星链”网络,其中1584颗将部署在地球上空550千米处的近地轨道,并从2020年开始工作。该卫星仍在工作。
2D轨道图
3D轨道图
轨道高度分析图
轨道倾角分析图
轨道综合分析图
查看轨道综合分析图